COSMOS 2251 DEB, 37530

Orbit data source: Space-Track

COSMOS 2251 DEB, 37530 is space debris in LEO originally from a launch on Wed, 16 Jun 1993 UTC launched from the Plesetsk Missile And Space Complex (PKMTR). The debris from Iridium 33, an American commercial communications satellite, has been tracked extensively since its accidental collision with the defunct Russian satellite Cosmos 2251 in 2009. This event, occurring at high speed in low Earth orbit (LEO), generated thousands of pieces of space debris, significantly increasing the risk of further collisions. The Iridium 33 debris cloud has impacted space traffic management and orbital debris mitigation strategies, making it a subject of ongoing study in space situational awareness.

Loading next visibility...
Identifier
37530, 1993-036BNK
Orbit
LEO
Country
Flag of CISCIS
Related business
Manufacturer
Unknown
Mission
Spacecraft
Bus & Motor
Unknown
Mass
Unknown
Launch date (UTC)
1993-06-16 (33 years ago)
Launch vehicle
Unknown
Launch site
Plesetsk Missile And Space Complex (PKMTR)
Object type
Payload
Rocket body
Debris
Shape & HBR
Unknown shape, 0.1 m
Radar Cross Section
Medium (>0.1 m² and <1 m²)

Expand to show TLE details & history
Last TLE update: 1 day ago

TLE from 1 day ago
0 COSMOS 2251 DEB
1 37530U 93036BNK 26161.83989867  .00000391  00000-0  14679-3 0  9996
2 37530  74.0361   3.7473 0026499  24.1146 348.8008 14.34727361878151
Epoch: 2026-06-10T20:09Z
TLE epoch observation values (Epoch: 2026-06-10T20:09:27.245Z)
Latitude
12.31772°
Longitude
165.75364°
Altitude
759.225 km
Speed
7.486 km/s
True Right ascension
00h 29m 14s
True Declination
12° 14' 47"
Sunlit
Object was in daylight at epoch
Visualization orbit readout
Latitude
Unknown
Longitude
Unknown
Altitude
Unknown
Speed
Unknown
Apparent Right ascension
Unknown
Apparent Declination
Unknown
Sunlit
N/A
Visualization observer readout
Local Sidereal Time
16:56:53
Azimuth
Unknown
Elevation
Unknown
Doppler factor
Unknown
Orbital elements
Apogee altitude
792.549 km
Perigee altitude
754.647 km
Semi-major axis
7,151.735 km
Eccentricity
0.00265
Inclination
74.0361°
RAAN
3.7473°
Arg. of periapsis
24.1146°
True anomaly
348.74163°
Mean anomaly
348.8008°
Eccentric anomaly
348.77124°
Mean motion
3.58861 °/min
Orbital period
100.32 mins
BSTAR
0.00014679
Loading maneuver chart data...
Computing Atmospheric mass density...

Documentation

Showing up to 5 results
|